Home > Weather > Guatemala > Past weeks

Flag for Guatemala Past Weather in Guatemala, Guatemala — Yesterday and Last 2 Weeks

Now
68 °F

Scattered clouds.


Feels Like: 68 °F
Forecast: 60 / 77 °F
Wind: 12 mph from North

Location: Guatemala Aeropuertola Aurora

Current Time: Aug 25, 2016 at 9:15:16 AM

Latest Report: Aug 25, 2016 at 8:00 AM


Visibility: N/A

Pressure: 30.30 "Hg (25.34 "Hg at 1533m altitude)

Humidity: 94%

Dew Point: 66 °F

Location of GuatemalaLocation

Past Weather in Guatemala — Graph

°F

Guatemala Temperature Yesterday

Maximum temperature yesterday: 75 °F (at 12:00 PM)
Minimum temperature yesterday: 61 °F (at 6:00 AM)
Average temperature yesterday: 68 °F

High & Low Weather Summary for the Past Weeks

 TemperatureHumidityPressure
High82 °F (Aug 11, 3:00 PM)100% (Aug 14, 4:00 AM)30.39 "Hg (Aug 14, 4:00 AM)
Low61 °F (Aug 12, 6:00 AM)42% (Aug 11, 3:00 PM)30.12 "Hg (Aug 13, 4:00 PM)
Average69 °F79%30.27 "Hg
* Reported Aug 10 8:00 AM — Aug 25 8:00 AM, Guatemala, Weather by CustomWeather, © 2016

Note: Actual official high and low records may vary slightly from our data, if they occured in-between our weather recording intervals... More about our weather records

Advertising

Guatemala Weather History for the Previous 24 Hours

Scroll right to see more
 ConditionsComfort  
Time TempWeatherWind HumidityBarometerVisibility
8:00 AM
Thu, Aug 25
68 °FScattered clouds.12 mph94%30.30 "HgN/A
7:00 AM64 °FScattered clouds.9 mph83%30.30 "HgN/A
6:00 AM61 °FSunny.9 mph88%30.27 "Hg10 mi
5:00 AM61 °FClear.7 mph88%30.27 "Hg10 mi
4:00 AM61 °FClear.7 mph94%30.27 "Hg10 mi
3:00 AM63 °FClear.9 mph88%30.27 "Hg10 mi
2:00 AM63 °FPassing clouds.7 mph88%30.27 "HgN/A
1:00 AM63 °FPassing clouds.7 mph94%30.30 "HgN/A
12:00 AM63 °FPassing clouds.7 mph94%30.33 "HgN/A
11:00 PM
Wed, Aug 24
64 °FPassing clouds.12 mph88%30.33 "HgN/A
10:00 PM64 °FPassing clouds.12 mph88%30.33 "HgN/A
9:00 PM64 °FPassing clouds.9 mph88%30.33 "HgN/A
8:00 PM66 °FPassing clouds.14 mph83%30.30 "HgN/A
7:00 PM68 °FClear.16 mph73%30.30 "Hg10 mi
6:00 PM70 °FScattered clouds.18 mph69%30.30 "HgN/A
5:00 PM73 °FPassing clouds.18 mph65%30.27 "HgN/A
4:00 PM75 °FPassing clouds.16 mph57%30.27 "HgN/A
3:00 PM75 °FScattered clouds.14 mph54%30.27 "HgN/A
2:00 PM75 °FScattered clouds.14 mph61%30.30 "HgN/A
1:00 PM75 °FScattered clouds.14 mph57%30.33 "HgN/A
12:00 PM75 °FScattered clouds.16 mph54%30.36 "HgN/A
11:00 AM73 °FPartly sunny.14 mph57%30.36 "HgN/A
10:00 AM72 °FPassing clouds.16 mph61%30.36 "HgN/A
9:00 AM70 °FPassing clouds.14 mph64%30.36 "HgN/A
Weather by CustomWeather, © 2016

See weather overviewHow to use our weather pages